Hourly Data Report for March 16, 2017

PORT ALBERNI (AUT)
BRITISH COLUMBIA

49°18'59.700" N
124°55'36.600" W
76.20 m
1036B06
71475
WQC

Download Data

Hourly Data (March 2017)
Hourly Data Report for March 16, 2017
TIME
LST
Temp Definition
°C
Dew Point Definition
°C
Rel Hum Definition
%
Precip. Amount Definition
mm

Wind Dir Definition
10's deg

Wind Spd Definition
km/h
Visibility Definition
km
Stn Press Definition
kPa
Hmdx Definition


Wind Chill Definition


Weather Definition


00:00 3.6 3.4 99 0.0 29 4   100.55     LegendNANA
01:00 1.6 1.4 99 0.0 12 2   100.70     LegendNANA
02:00 0.5 0.3 99 0.0 13 8   100.75     LegendNANA
03:00 0.6 0.4 99 0.1 25 2   100.82     LegendNANA
04:00 1.7 1.5 99 0.0 8 7   100.84     LegendNANA
05:00 2.3 2.1 99 0.7 31 2   100.93     LegendNANA
06:00 1.9 1.6 98 0.6 18 5   100.97     LegendNANA
07:00 2.2 1.9 98 0.7 23 2   101.09     LegendNANA
08:00 2.5 2.3 98 1.2 14 4   101.17     LegendNANA
09:00 4.1 3.1 93 0.0 15 7   101.25     LegendNANA
10:00 4.7 3.5 92 0.2 10 8   101.27     LegendNANA
11:00 5.8 3.9 88 0.0 11 18   101.29     LegendNANA
12:00 5.9 3.2 83 0.0 11 24   101.31     LegendNANA
13:00 6.4 3.4 81 0.0 11 14   101.27     LegendNANA
14:00 6.7 4.3 85 0.0 11 15   101.25     LegendNANA
15:00 4.4 3.2 92 4.0 10 9   101.29     LegendNANA
16:00 5.4 3.6 88 1.7 6 5   101.25     LegendNANA
17:00 5.3 4.5 95 0.7 8 7   101.18     LegendNANA
18:00 4.2 3.6 96 1.8 10 13   101.18     LegendNANA
19:00 3.9 3.2 95 5.6 9 17   101.16     LegendNANA
20:00 3.6 2.9 95 0.8 10 9   101.18     LegendNANA
21:00 3.6 3.1 97 0.3 11 7   101.19     LegendNANA
22:00 3.6 3.2 98 1.1 11 6   101.17     LegendNANA
23:00 4.0 3.7 98 2.0 10 11   101.19     LegendNANA

Notes on Data Quality.

Legend

  • E = Estimated
  • M = Missing
  • NA = Not Available*
  • [empty] = Indicates an unobserved value
Date modified: